ON7DE Weather Reports


time (UTC)temp
F
wind
direction
speed
knots
gust
knots
rain 1hr
in
rain 24hr
in
rain mn
in
humidity
%
barometer
mb
20260507070009 52 55 0.9 2.6 0.00 0.01 0.00 83 1015.2
20260507065617 52 63 0.9 2.6 0.00 0.01 0.00 83 1015.2
20260507064504 51 50 0.9 1.7 0.00 0.01 0.00 83 1015.2
20260507063603 51 55 1.7 2.6 0.00 0.01 0.00 83 1015.1
20260507062705 51 61 1.7 2.6 0.00 0.01 0.00 83 1015.3
20260507061803 51 56 1.7 2.6 0.00 0.01 0.00 84 1015.1
20260507060903 51 45 1.7 1.7 0.00 0.01 0.00 85 1015.1
20260507060004 51 11 1.7 1.7 0.00 0.01 0.00 86 1014.9
20260507055403 50 8 1.7 3.5 0.00 0.01 0.00 86 1014.9
20260507054505 50 157 0.0 1.7 0.00 0.01 0.00 89 1014.6
20260507053603 50 0 0.0 0.0 0.00 0.01 0.00 91 1014.9
20260507052704 49 0 0.0 0.0 0.00 0.01 0.00 92 1014.7
20260507051803 49 0 0.0 0.0 0.00 0.01 0.00 92 1014.6
20260507050908 49 0 0.0 0.0 0.00 0.01 0.00 92 1014.5
20260507050004 49 0 0.0 0.0 0.00 0.01 0.00 92 1014.3
20260507045405 49 0 0.0 0.0 0.00 0.01 0.00 92 1014.5
20260507044504 49 0 0.0 0.0 0.00 0.01 0.00 92 1014.4
20260507043605 49 0 0.0 0.0 0.00 0.01 0.00 92 1014.2
20260507042705 49 0 0.0 0.0 0.00 0.01 0.00 91 1014.2
20260507041805 49 0 0.0 0.0 0.00 0.01 0.00 91 1014.1
20260507040906 49 0 0.0 0.0 0.00 0.01 0.00 91 1014.1
20260507040004 49 0 0.0 0.0 0.00 0.01 0.00 91 1013.9
20260507035403 49 0 0.0 0.0 0.00 0.01 0.00 91 1014.0
20260507034503 49 0 0.0 0.0 0.00 0.01 0.00 91 1013.8
20260507033818 49 0 0.0 0.0 0.00 0.01 0.00 91 1013.7
20260507032704 49 0 0.0 0.0 0.00 0.01 0.00 91 1013.7
20260507031804 49 0 0.0 0.0 0.00 0.01 0.00 91 1013.6
20260507030904 49 0 0.0 0.0 0.00 0.01 0.00 92 1013.7
20260507030213 49 0 0.0 0.0 0.00 0.01 0.00 91 1013.6
20260507025405 49 0 0.0 0.0 0.00 0.01 0.00 91 1013.6
20260507024716 49 0 0.0 0.0 0.00 0.01 0.00 91 1013.5
20260507023606 49 0 0.0 0.0 0.00 0.01 0.00 91 1013.5
20260507022703 49 0 0.0 0.0 0.00 0.01 0.00 91 1013.5
20260507022019 49 0 0.0 0.0 0.00 0.01 0.00 90 1013.3
20260507020905 49 0 0.0 0.0 0.00 0.01 0.00 89 1013.3
20260507020005 49 0 0.0 0.0 0.00 0.01 0.00 89 1013.2
20260507015405 49 0 0.0 0.0 0.00 0.01 0.00 89 1013.4
20260507014717 49 0 0.0 0.0 0.00 0.01 0.00 89 1013.1
20260507013608 49 0 0.0 0.0 0.00 0.01 0.00 89 1013.2
20260507012704 49 0 0.0 0.0 0.00 0.01 0.00 89 1013.1
20260507011805 49 0 0.0 0.0 0.00 0.01 0.00 88 1013.2
20260507010903 49 0 0.0 0.0 0.00 0.01 0.00 87 1013.0
20260507010005 49 0 0.0 0.0 0.00 0.01 0.00 87 1013.1
20260507005404 49 0 0.0 0.0 0.00 0.01 0.00 87 1012.9
20260507004505 49 0 0.0 0.0 0.00 0.01 0.00 86 1013.3
20260507003815 49 0 0.0 0.0 0.00 0.01 0.00 86 1013.1
20260507002918 50 0 0.0 0.0 0.00 0.01 0.00 86 1013.3
20260507001805 49 0 0.0 0.0 0.00 0.01 0.00 84 1012.9
20260507000904 49 0 0.0 0.0 0.00 0.01 0.00 83 1012.9
20260507000005 49 0 0.0 0.0 0.00 0.01 0.00 83 1013.1
20260506235403 49 0 0.0 0.0 0.00 0.01 0.00 83 1013.1
20260506234508 50 0 0.0 0.0 0.00 0.01 0.00 82 1013.2
20260506233603 50 0 0.0 0.0 0.00 0.01 0.00 80 1013.0
20260506232703 51 0 0.0 0.0 0.00 0.01 0.00 77 1012.7
20260506232016 51 0 0.0 0.0 0.00 0.01 0.00 76 1012.9
20260506230903 51 0 0.0 0.0 0.00 0.01 0.00 77 1012.7
20260506230004 51 0 0.0 0.0 0.00 0.01 0.00 77 1012.7
20260506225406 51 0 0.0 0.0 0.00 0.01 0.00 76 1012.8
20260506224504 51 0 0.0 0.0 0.00 0.01 0.00 75 1012.7
20260506223603 51 0 0.0 0.0 0.00 0.01 0.00 75 1012.5
20260506222705 51 0 0.0 0.0 0.00 0.01 0.00 75 1012.5
20260506221805 51 0 0.0 0.0 0.00 0.01 0.00 75 1012.5
20260506220905 51 0 0.0 0.0 0.00 0.01 0.00 75 1012.5
20260506220221 51 0 0.0 0.0 0.00 0.01 0.00 74 1012.4
20260506215408 51 67 0.0 0.9 0.00 0.01 0.01 74 1012.5
20260506214504 52 67 0.9 2.6 0.00 0.01 0.01 74 1012.4
20260506213603 52 60 1.7 2.6 0.00 0.01 0.01 73 1012.5
20260506212704 52 60 1.7 2.6 0.00 0.01 0.01 74 1012.5
20260506212017 52 60 2.6 2.6 0.00 0.01 0.01 74 1012.2
20260506211114 52 70 1.7 2.6 0.00 0.01 0.01 75 1012.2
20260506210005 52 75 2.6 3.5 0.00 0.01 0.01 75 1012.0
20260506205403 52 71 2.6 3.5 0.00 0.01 0.01 75 1012.2
20260506204505 52 68 1.7 3.5 0.00 0.01 0.01 74 1012.0
20260506203818 52 57 1.7 2.6 0.00 0.01 0.01 74 1012.0
20260506202706 52 62 2.6 3.5 0.00 0.01 0.01 74 1011.9
20260506201805 52 69 1.7 3.5 0.00 0.01 0.01 75 1011.8
20260506200905 52 54 3.5 4.3 0.00 0.01 0.01 74 1011.8
20260506200008 52 72 3.5 3.5 0.00 0.01 0.01 73 1011.8
20260506195404 52 72 3.5 6.1 0.00 0.01 0.01 73 1011.5
20260506194505 52 59 5.2 8.7 0.00 0.01 0.01 72 1011.7
20260506193603 52 63 5.2 8.7 0.00 0.01 0.01 72 1011.8
20260506192705 52 61 5.2 8.7 0.00 0.01 0.01 73 1011.6
20260506191805 52 69 5.2 8.7 0.00 0.01 0.01 73 1011.2
20260506190906 52 48 5.2 6.1 0.00 0.01 0.01 74 1011.3
20260506190005 52 51 4.3 4.3 0.00 0.01 0.01 74 1011.1
20260506185405 52 50 4.3 5.2 0.00 0.01 0.01 74 1010.9
20260506184722 52 46 4.3 7.0 0.00 0.01 0.01 75 1010.8
20260506183604 52 50 6.1 6.1 0.00 0.01 0.01 74 1010.7
20260506182705 53 50 5.2 6.1 0.00 0.01 0.01 74 1010.9
20260506181808 53 49 5.2 6.1 0.00 0.01 0.01 73 1010.6
20260506180903 54 57 5.2 6.1 0.00 0.01 0.01 71 1010.4
20260506180005 55 76 6.1 6.1 0.00 0.01 0.01 69 1010.3
20260506175405 55 64 5.2 6.1 0.00 0.01 0.01 66 1010.2
20260506174505 55 63 4.3 6.1 0.00 0.01 0.01 62 1010.1
20260506173603 56 51 4.3 6.1 0.00 0.01 0.01 62 1010.2
20260506172703 56 42 3.5 4.3 0.00 0.01 0.01 64 1009.8
20260506171803 56 56 4.3 6.1 0.00 0.01 0.01 66 1009.8
20260506170905 56 35 4.3 6.1 0.00 0.01 0.01 65 1009.5
20260506170010 56 63 4.3 6.1 0.00 0.01 0.01 64 1009.8
20260506165616 56 53 4.3 5.2 0.00 0.01 0.01 64 1009.6
20260506164718 57 43 5.2 7.0 0.00 0.01 0.01 66 1009.3
20260506163604 58 42 5.2 6.1 0.00 0.01 0.01 63 1009.3
20260506162705 59 36 4.3 6.1 0.00 0.01 0.01 62 1009.3
20260506161804 59 19 3.5 5.2 0.00 0.01 0.01 63 1009.1
20260506160903 58 25 4.3 6.1 0.00 0.01 0.01 63 1009.1
20260506160214 59 42 3.5 6.1 0.00 0.01 0.01 62 1009.2
20260506155616 58 40 4.3 5.2 0.00 0.01 0.01 61 1009.0
20260506154503 59 26 2.6 4.3 0.00 0.01 0.01 59 1009.4
20260506153603 59 3 2.6 4.3 0.00 0.01 0.01 60 1009.1
20260506152918 59 333 2.6 4.3 0.00 0.01 0.01 60 1009.4
20260506151804 58 28 4.3 5.2 0.00 0.01 0.01 59 1009.0
20260506150903 59 47 2.6 5.2 0.00 0.01 0.01 64 1009.2
20260506150225 59 96 3.5 4.3 0.00 0.01 0.01 67 1009.1
20260506145405 58 46 4.3 4.3 0.00 0.01 0.01 67 1009.3
20260506144505 58 31 4.3 5.2 0.00 0.01 0.01 66 1009.2
20260506143605 58 41 4.3 5.2 0.00 0.01 0.01 65 1009.2
20260506142704 59 24 3.5 4.3 0.00 0.01 0.01 64 1009.2
20260506141805 59 27 3.5 6.1 0.00 0.01 0.01 63 1009.0
20260506140905 59 35 5.2 6.1 0.00 0.01 0.01 60 1009.1
20260506140216 59 27 5.2 6.1 0.00 0.01 0.01 62 1009.2
20260506135404 60 348 4.3 6.1 0.00 0.01 0.01 60 1009.0
20260506134505 60 339 3.5 5.2 0.00 0.01 0.01 62 1009.3
20260506133609 60 39 5.2 7.0 0.00 0.01 0.01 61 1009.0
20260506132705 60 65 5.2 5.2 0.00 0.01 0.01 64 1008.9
20260506131804 59 50 5.2 6.1 0.00 0.01 0.01 66 1009.1
20260506130910 59 45 3.5 4.3 0.00 0.01 0.01 67 1009.0
20260506130216 57 45 4.3 7.0 0.00 0.01 0.01 68 1009.0
20260506125405 57 33 5.2 6.1 0.00 0.01 0.01 69 1009.0
20260506124504 57 49 6.1 8.7 0.00 0.01 0.01 69 1008.9
20260506123605 59 53 4.3 7.0 0.00 0.01 0.01 68 1008.7
20260506122705 59 50 4.3 7.0 0.00 0.01 0.01 67 1008.9
20260506121803 60 50 4.3 6.1 0.00 0.01 0.01 67 1008.7
20260506120903 60 45 6.1 7.0 0.00 0.01 0.01 65 1008.7
20260506120008 60 21 5.2 8.7 0.00 0.01 0.01 69 1008.8
20260506115614 59 19 5.2 8.7 0.00 0.01 0.01 69 1008.8
20260506114505 59 45 5.2 8.7 0.00 0.01 0.01 71 1008.7
20260506113604 58 333 4.3 6.1 0.00 0.01 0.01 76 1008.5
20260506112916 58 14 5.2 6.1 0.00 0.01 0.01 75 1008.6
20260506111805 56 12 4.3 4.3 0.00 0.01 0.01 77 1008.8
20260506111115 56 6 4.3 4.3 0.00 0.01 0.01 78 1008.8
20260506110004 57 27 3.5 5.2 0.00 0.01 0.01 78 1008.8
20260506105405 57 358 3.5 4.3 0.00 0.01 0.01 78 1008.7
20260506104503 58 50 2.6 4.3 0.00 0.01 0.01 78 1009.0
20260506103610 58 325 2.6 3.5 0.00 0.01 0.01 79 1008.9
20260506102703 57 30 3.5 5.2 0.00 0.01 0.01 82 1008.7
20260506101803 56 30 4.3 6.1 0.00 0.01 0.01 81 1008.9
20260506100905 56 22 3.5 4.3 0.00 0.01 0.01 83 1008.7
20260506100218 56 29 2.6 3.5 0.00 0.01 0.01 84 1008.8
20260506095403 55 315 3.5 4.3 0.00 0.01 0.01 86 1008.9
20260506094508 54 302 2.6 3.5 0.00 0.01 0.01 89 1008.9
20260506093603 53 357 2.6 2.6 0.00 0.01 0.01 92 1008.8
20260506092703 53 256 2.6 2.6 0.00 0.01 0.01 95 1008.9
20260506091805 52 300 2.6 2.6 0.00 0.01 0.01 96 1008.7
20260506090904 51 264 2.6 2.6 0.00 0.01 0.01 97 1008.7
20260506090005 51 297 2.6 4.3 0.00 0.01 0.01 98 1008.6
20260506085404 51 281 2.6 4.3 0.00 0.01 0.01 99 1008.8
20260506084504 51 266 1.7 2.6 0.00 0.01 0.01 99 1008.8
20260506083612 51 332 1.7 2.6 0.00 0.01 0.01 99 1008.6
20260506082705 50 291 0.9 1.7 0.00 0.01 0.01 99 1008.3
20260506081803 49 8 1.7 3.5 0.00 0.01 0.01 99 1008.4
20260506080905 49 352 1.7 4.3 0.00 0.01 0.01 99 1008.6
20260506072705 49 12 2.6 3.5 0.00 0.01 0.01 99 1008.4
20260506072016 49 11 2.6 3.5 0.00 0.01 0.01 99 1008.5
20260506070905 49 50 3.5 4.3 0.00 0.01 0.01 99 1008.3